Retour au catalogue

STARLINK-34137

ActifCommunicationsVLEO
NORAD 63953·PAYLOAD·🇺🇸 United States

Lancé May 13, 2025 depuis Cape Canaveral Space Force Station

Loading…

Prochains Passages (prochaines 24 heures)

TLE

FraisSource: CelesTrak SupGP

Époque: Sep 14, 2026, 22:48 UTC

1 63953C 25099B   26257.95048611 -.00021209  00000+0 -76817-3 0  2571
2 63953  42.9994 187.4276 0001034 255.9154 357.4594 15.27590752    10

Suivez STARLINK-34137 en temps réel avec AllMySat

Download on the App Store